Probability
0 0 0 0 0 0 0 0 0 0 0 0 0 0 0 0 0 0 0 0 0 0 0 0 0 0 0 0 0 0 0 0 0 0 0 0 0 0 0 0 1 2 3 3
0 0 0 0 0 0 0 0 0 0 0 0 0 0 0 0 0 0 0 0 0 0 0 0 0 0 0 0 0 0 0 0 0 0 0 1 1 1 0 0 0 1 2 2
0 0 0 0 0 0 0 0 0 0 0 0 0 0 0 0 0 0 0 0 0 0 0 0 0 0 0 0 0 0 0 0 0 0 0 1 2 2 1 0 0 0 1 1
0 0 0 0 0 0 0 0 0 0 0 0 0 0 0 0 0 0 0 0 0 0 0 0 0 0 0 0 0 0 0 0 0 0 0 1 2 2 1 0 0 0 0 0
0 0 0 0 0 0 0 0 0 0 0 0 0 0 0 0 0 0 0 0 0 0 0 0 0 0 0 0 0 0 0 0 0 0 0 0 1 1 0 0 0 0 0 0
0 0 0 0 0 0 0 0 0 0 0 0 0 0 0 0 0 0 0 0 0 0 0 0 0 0 0 0 0 0 0 0 0 0 0 0 0 0 0 0 0 0 0 0
0 0 0 0 0 0 0 0 0 0 0 0 0 0 0 0 0 0 0 0 0 0 0 0 0 0 0 0 0 0 0 0 0 0 0 0 0 0 0 0 0 0 0 0
0 0 0 0 0 0 0 0 0 0 0 0 0 0 0 0 0 0 0 0 0 0 0 0 0 0 0 0 0 1 1 1 0 0 0 0 0 0 0 0 0 0 0 0
0 0 0 0 0 0 0 1 1 0 0 0 0 0 0 0 0 0 0 0 0 0 0 0 0 0 0 0 0 1 2 1 0 0 0 0 0 0 0 0 0 0 0 0
0 0 0 0 0 0 0 1 1 0 0 0 0 0 0 0 0 0 0 0 0 0 0 0 0 0 0 0 0 1 1 1 0 0 0 0 0 0 0 0 0 0 0 0
0 0 0 0 0 0 0 0 0 0 0 0 0 0 0 0 0 0 0 0 0 0 0 0 0 0 0 0 0 0 0 0 0 0 0 0 0 0 0 0 0 0 0 0
0 0 0 0 0 0 0 0 0 0 0 0 0 0 0 0 0 0 0 0 0 0 0 0 0 0 0 0 0 0 0 0 0 0 0 0 0 0 0 0 0 0 0 0
0 0 0 0 0 0 0 0 0 0 0 0 0 0 0 0 0 0 0 0 0 0 0 0 0 0 0 0 0 0 0 0 0 0 0 0 0 0 0 0 0 0 0 0
0 0 0 0 0 0 0 0 0 0 0 0 0 0 0 0 0 0 0 0 0 0 0 0 0 0 0 0 0 0 0 0 0 0 0 0 0 0 0 0 0 0 0 0
0 0 0 0 0 0 0 0 0 0 0 0 0 0 0 0 0 0 0 0 0 0 0 0 0 0 0 0 0 0 0 0 0 0 0 0 0 0 0 0 0 0 0 0
0 0 0 0 0 0 0 0 0 0 0 0 0 0 0 0 0 0 0 0 0 0 0 0 0 0 0 0 0 0 0 0 0 0 0 0 0 0 0 0 0 0 0 0
0 0 0 0 0 0 0 0 0 0 0 0 0 0 0 0 0 0 0 0 0 0 0 0 0 0 0 0 0 0 0 0 0 0 0 0 0 0 0 0 0 0 0 0
0 0 0 0 0 0 0 0 0 0 0 0 0 0 0 0 0 0 0 0 0 0 0 0 0 0 0 0 0 0 0 0 0 0 0 0 0 0 0 0 0 0 0 0
0 0 0 0 0 0 0 0 0 0 0 0 0 0 0 0 0 0 0 0 0 0 0 0 0 0 0 0 0 1 1 1 0 0 0 0 0 0 0 0 0 0 0 0
0 0 0 0 0 0 0 0 0 0 0 0 0 0 0 0 0 0 0 0 0 0 0 0 0 0 0 0 0 1 2 2 1 0 0 0 0 0 0 0 0 0 0 0
0 0 0 0 0 0 0 0 0 0 0 0 0 0 0 0 0 0 0 0 0 0 0 0 0 0 0 0 0 1 2 3 2 1 0 0 0 0 0 0 0 0 0 0
0 0 0 0 0 0 0 0 0 0 0 0 0 0 0 0 0 0 0 0 0 0 0 0 0 0 0 0 0 0 1 2 2 2 1 0 0 0 0 0 0 0 0 0
0 0 0 0 0 0 0 0 0 0 0 0 0 0 0 0 0 0 0 0 0 0 0 0 0 0 0 0 0 0 0 1 1 1 1 0 0 0 0 0 0 0 0 0
0 0 0 0 0 0 0 0 0 0 0 0 0 0 0 0 0 0 0 0 0 0 0 0 0 0 0 0 0 0 0 0 0 0 0 0 0 0 0 0 0 0 0 0
0 0 0 0 0 0 0 0 0 0 0 0 0 0 0 0 0 0 0 0 0 0 0 0 0 0 0 0 0 0 0 0 0 0 0 0 0 0 0 0 0 0 0 0
0 0 0 0 0 0 0 0 0 0 0 0 0 0 0 0 0 0 0 0 0 0 0 0 0 0 0 0 0 0 0 0 0 0 0 0 0 0 0 0 0 0 0 0
Wind_Speed
1 3 3 7 6 5 3 2 3 4 4 4 5 4 4 4 4 5 4 4 4 3 2 2 3 4 4 4 4 4 5 3 3 2 2 2 1 1 2 2 2 2 3 3
3 3 8 5 3 2 2 2 2 2 2 4 3 2 3 4 6 8 7 6 4 3 3 3 3 4 4 4 4 4 4 4 3 1 1 2 2 1 1 2 2 3 3 2
5 6 4 3 2 2 2 3 3 2 1 2 3 2 1 1 2 4 5 5 5 6 6 4 3 3 4 4 3 4 4 3 3 3 2 3 3 3 3 2 2 2 2 2
2 3 1 1 2 3 3 4 3 2 2 2 2 2 4 3 2 3 5 4 5 5 5 4 4 3 3 3 3 3 3 3 3 3 4 4 3 2 1 0 1 2 2 3
2 1 1 1 3 3 4 2 1 2 2 0 1 2 6 2 3 6 6 6 6 6 7 6 5 4 3 3 3 3 3 3 3 3 4 4 2 1 1 1 2 2 2 2
3 2 2 3 2 2 1 4 4 5 4 1 4 4 5 5 7 6 6 6 6 6 6 5 4 4 3 3 3 3 4 3 3 3 4 4 3 3 2 2 1 1 1 1
5 4 2 0 1 3 4 6 4 4 3 5 2 2 6 6 5 7 9 7 6 6 6 6 5 4 3 3 3 3 4 3 3 3 3 3 3 3 2 1 1 1 1 1
1 5 3 0 3 2 2 7 6 3 3 4 2 2 4 3 2 4 6 7 6 5 5 6 6 5 4 3 3 3 3 3 2 2 2 2 2 2 1 1 1 1 0 1
3 4 4 2 1 4 2 2 5 5 1 1 2 2 3 3 4 5 6 6 6 6 5 5 5 4 4 3 3 3 3 2 2 1 1 1 1 1 1 1 0 0 1 0
4 2 4 3 3 2 3 4 5 3 2 2 3 2 4 4 3 4 5 6 6 6 5 5 4 4 3 3 2 3 3 3 2 1 1 1 0 1 1 1 1 1 1 0
3 3 3 3 1 2 0 1 3 3 4 4 2 5 5 8 8 8 8 7 7 7 7 6 4 4 3 3 2 2 2 2 1 1 1 1 0 0 0 0 1 1 1 0
2 5 1 4 4 2 3 4 5 4 3 3 3 7 5 4 6 7 7 6 6 7 6 6 5 4 3 2 2 2 2 2 1 1 1 0 1 1 0 0 1 0 0 0
3 5 2 5 6 4 1 1 3 4 3 3 3 6 3 1 3 5 6 6 5 5 5 5 4 4 3 3 2 2 2 2 1 1 1 1 1 1 1 1 1 1 1 1
5 4 5 6 5 3 3 3 2 4 3 3 5 5 3 2 3 4 4 5 5 5 6 5 4 4 3 3 3 3 2 2 2 2 2 1 0 0 1 1 1 1 1 0
4 2 3 4 5 3 3 5 4 4 6 7 7 6 6 5 6 5 5 5 5 4 5 6 5 4 4 3 3 3 3 2 3 2 2 1 1 0 0 1 1 1 0 0
2 2 0 3 3 2 3 5 5 5 4 4 4 4 4 3 2 3 4 5 5 5 5 5 5 5 5 5 4 3 3 3 3 3 2 1 1 0 1 1 1 1 1 0
1 2 1 3 5 4 5 5 4 3 2 3 5 6 2 2 4 5 5 6 6 6 6 6 6 6 6 6 5 5 4 3 3 3 2 1 1 1 0 1 1 1 1 0
4 3 2 1 2 4 7 3 2 2 1 1 2 2 3 4 4 4 4 5 5 5 5 5 5 5 5 5 4 4 3 4 3 3 3 2 2 1 0 0 1 1 1 1
6 6 3 3 2 5 6 3 2 3 2 2 2 1 1 2 2 2 1 3 4 5 5 5 5 4 4 4 5 5 3 3 3 3 3 3 3 2 1 0 1 1 1 1
3 4 4 3 3 5 6 4 1 4 2 3 2 3 3 2 1 4 3 2 2 2 2 3 3 2 3 4 4 5 4 3 4 4 3 3 3 3 2 2 1 1 0 1
2 2 3 4 4 7 7 4 1 2 6 3 2 3 3 4 5 5 3 2 2 2 1 2 2 2 3 4 5 5 4 4 4 3 3 2 3 3 3 2 1 1 0 0
5 3 4 4 4 8 4 2 4 6 3 2 2 3 3 2 1 1 2 2 1 1 1 1 2 1 1 3 4 4 3 3 2 2 2 2 2 2 2 2 1 1 1 0
4 6 5 7 7 5 2 3 4 4 3 3 3 3 3 2 2 1 1 2 2 1 1 1 2 1 0 1 3 3 3 3 2 2 2 2 2 2 2 2 2 1 1 1
3 1 2 2 4 4 3 1 1 1 3 3 3 3 3 3 3 2 2 1 1 1 1 1 2 2 1 1 1 2 2 2 3 2 2 1 2 1 2 2 2 2 2 2
4 0 1 3 4 3 3 2 2 2 1 1 1 2 4 4 3 3 2 2 2 2 1 1 2 2 2 1 1 2 2 2 2 2 1 1 2 2 2 1 1 2 2 3
4 5 5 6 6 4 5 5 3 2 2 2 2 1 2 3 4 3 2 2 2 2 1 1 1 2 2 2 2 2 2 2 2 2 1 1 1 1 1 1 0 1 0 1
Wind_Direction
65 90 211 223 207 199 198 196 231 236 205 151 168 187 209 190 153 157 158 162 163 167 161 104 93 87 76 75 81 77 77 68 85 91 94 103 98 79 66 71 79 87 96 102
45 241 233 221 217 185 183 215 267 284 219 161 174 211 216 185 177 175 174 174 171 137 103 95 84 76 77 81 89 81 81 75 74 88 134 137 128 100 80 54 61 71 89 96
187 237 226 189 208 173 207 193 208 225 4 74 121 331 277 227 158 163 174 172 165 154 149 139 111 88 86 83 99 102 89 79 74 71 72 70 62 51 40 33 37 38 84 92
235 265 192 157 210 169 225 221 197 164 110 254 170 241 267 215 194 189 190 172 167 157 144 139 124 106 106 104 98 98 94 80 75 90 95 98 109 116 165 159 64 45 62 76
283 260 110 208 228 182 210 212 190 172 146 321 290 170 275 198 205 218 203 180 167 157 149 145 142 136 118 102 98 97 88 77 74 87 106 104 87 96 85 79 72 56 41 53
263 256 199 213 230 188 157 54 33 51 76 291 240 172 262 222 209 202 190 173 164 156 149 141 129 113 94 81 82 85 83 70 66 81 90 101 101 87 85 73 78 60 35 27
324 316 296 171 32 9 68 76 30 5 15 253 254 168 247 251 211 184 174 169 162 150 143 138 129 121 111 100 89 85 86 71 60 73 83 96 101 99 102 111 125 101 48 9
285 294 295 274 169 193 172 137 153 196 224 278 337 225 272 298 137 136 144 146 140 141 146 151 153 149 142 130 119 107 103 88 71 68 69 80 95 100 95 88 110 141 196 245
187 264 300 300 220 154 148 169 172 148 213 270 289 300 336 29 74 99 121 133 147 154 154 157 154 153 153 143 137 137 129 113 107 102 89 74 84 94 90 79 90 220 264 250
162 244 298 318 8 351 160 151 92 111 158 258 286 245 224 216 185 158 157 162 164 160 156 156 156 158 161 155 139 126 128 137 144 112 98 81 96 122 111 76 14 330 306 325
118 147 305 348 238 233 68 98 116 125 152 159 238 265 232 199 191 182 185 181 172 170 170 166 162 163 158 144 134 129 123 118 120 119 105 70 28 130 133 135 284 312 312 326
103 119 254 275 281 244 175 182 148 153 222 177 180 263 283 201 189 177 182 185 180 170 167 165 159 152 150 148 145 142 134 132 161 166 141 116 36 34 27 304 292 319 312 295
106 103 69 342 335 351 346 219 161 143 136 165 181 259 306 104 162 178 181 184 178 167 164 162 157 160 169 168 163 160 152 156 152 126 109 82 44 27 350 312 317 313 295 302
113 119 164 195 219 249 278 277 197 136 163 209 216 236 277 239 204 203 193 181 171 170 169 169 174 181 185 181 178 172 175 167 143 124 111 106 354 262 267 296 308 277 273 277
90 145 210 233 245 237 252 263 243 208 200 200 223 220 236 222 207 193 180 168 158 165 171 179 186 189 187 185 189 182 181 175 150 132 131 186 238 259 352 332 333 310 279 275
70 146 334 299 295 310 294 277 247 240 224 213 218 251 246 206 166 156 171 171 177 186 189 191 190 189 190 192 195 189 184 179 154 151 169 186 151 72 8 346 3 7 352 352
123 128 113 278 309 354 294 264 227 225 235 203 224 238 218 162 175 183 185 183 191 196 200 199 196 197 200 198 192 187 189 173 162 167 175 171 160 150 254 339 12 4 337 348
160 139 146 214 10 249 250 256 173 153 279 233 191 206 199 200 205 192 180 177 190 199 201 204 202 201 201 192 184 175 166 166 170 173 176 184 172 186 206 49 350 331 332 329
170 156 149 149 208 268 280 277 211 168 291 287 174 187 185 140 57 337 249 187 194 204 208 206 204 202 190 184 177 160 160 166 169 181 188 193 185 186 177 205 264 282 326 329
107 124 137 151 184 237 248 269 260 106 264 278 176 170 174 116 115 257 244 208 208 209 203 197 185 169 173 188 169 158 170 173 188 198 202 197 185 183 187 204 228 253 249 265
78 93 155 182 215 256 257 265 107 177 237 245 194 181 174 192 214 225 219 215 209 204 194 167 159 171 188 179 157 159 171 198 211 200 192 192 187 184 186 192 210 208 282 355
179 172 190 166 197 251 260 149 177 213 215 194 195 193 185 203 226 213 200 197 179 167 170 156 145 162 198 167 154 162 188 208 194 179 182 199 195 191 174 173 185 180 150 93
196 190 189 189 212 239 235 206 215 177 173 193 195 202 171 169 190 195 201 192 189 194 200 159 143 137 126 160 157 171 210 196 173 166 192 213 202 182 170 178 185 182 175 174
282 168 149 241 262 270 272 264 257 195 189 194 191 183 171 181 188 190 190 214 225 230 206 162 139 142 179 196 179 192 209 188 168 175 195 197 184 183 178 178 180 187 196 198
242 243 187 258 273 307 312 283 266 276 250 188 182 181 178 173 184 183 187 211 223 235 233 174 167 173 195 204 212 218 200 162 160 179 192 195 182 180 190 194 201 206 218 208
220 198 196 231 232 220 261 274 268 256 247 208 166 167 187 177 181 180 188 200 201 209 204 174 183 190 200 194 210 226 207 171 164 177 191 197 187 182 172 164 343 327 260 258